Location: Rio Tanui
(39.9167°N, 8.5167°E)
Time: 16:03:46
(UTC+00:00)

Meteor 2-2 Rocket - Pass Details

Date: 23 June 2024
Orbit: 851 x 928 km, 81.3° (Epoch: 18 July)

Event Time Altitude Azimuth Distance (km) Brightness Sun altitude
Rises 01:26:22 0° 1° (N) 3,429 8.4 -20.9°
Reaches altitude 10° 01:29:06 10° 12° (NNE) 2,487 7.7 -20.7°
Maximum altitude 01:34:00 30° 73° (ENE) 1,481 5.9 -20.2°
Drops below altitude 10° 01:38:54 10° 133° (SE) 2,485 6.5 -19.7°
Sets 01:41:37 0° 144° (SE) 3,425 7.2 -19.4°
